Regional Weather Roundup
Issued by NWS

Home | Current Version | Previous Version | Graphics & Text | Print | Product List | Glossary On
Versions: 1 2 3 4 5 6 7 8 9 10 11 12 13 14 15 16 17 18 19 20 21 22 23 24 25 26 27
000
ASUS45 KBOU 201310
RWRCO

WEATHER ROUNDUP FOR COLORADO
NATIONAL WEATHER SERVICE DENVER/BOULDER CO
700 AM MDT SUN MAY 20 2018

NOTE: "FAIR" INDICATES FEW OR NO CLOUDS BELOW 12000 FEET WITH NO
SIGNIFICANT WEATHER AND/OR OBSTRUCTIONS TO VISIBILITY.

COZ001>005-013-030-031-201400-
...NORTHWEST COLORADO...

CITY           SKY/WX    TMP DP  RH WIND       PRES   REMARKS
CRAIG          FAIR      39  37  92 CALM      30.14R
HAYDEN         FAIR      40  36  86 E12       30.15S
MEEKER         FAIR      38  34  85 CALM      30.12S
RANGELY        FAIR      48  39  72 E10G16    30.09R
RABBIT EARS PA FAIR      34  32  93 NW5       30.28R WCI  30
STEAMBOAT SPGS PTSUNNY   34  34 100 SE5       30.16S VSB 1/2 WCI  29
WALDEN         FAIR      30  28  93 CALM      30.23R
$$

COZ006>008-011-201400-
...WEST CENTRAL VALLEYS...

CITY           SKY/WX    TMP DP  RH WIND       PRES   REMARKS
GRAND JUNCTION FAIR      54  37  52 E9        30.03R
MONTROSE       FAIR      45  32  60 S6        30.11R
EAGLE          FAIR      36  33  89 E5        30.21R
RIFLE          FAIR      44  39  82 CALM      30.11R
DELTA          FAIR      52  35  52 CALM      30.09R
NUCLA          FAIR      52  28  40 CALM      30.10R
$$

COZ017>023-064>068-201400-
...SOUTHWEST COLORADO...

CITY           SKY/WX    TMP DP  RH WIND       PRES   REMARKS
DURANGO        FAIR      43  28  55 N5        30.14R
CORTEZ         FAIR      50  28  42 VRB5      30.07R
PAGOSA SPRINGS FAIR      46  24  40 CALM      30.21R
TELLURIDE      FAIR      43  26  51 E3        30.25R
WOLF CREEK PAS FAIR      34  21  60 SW10      30.44R WCI  26
$$

COZ009-010-012-014-032>034-037-058>063-201400-
...CENTRAL COLORADO...

CITY           SKY/WX    TMP DP  RH WIND       PRES   REMARKS
ASPEN          FAIR      37  29  72 CALM      30.18R
BUENA VISTA    FAIR      40  37  89 SE6       30.27R
COPPER MTN     FAIR      37  23  56 S6        30.36R
BERTHOUD PASS  FAIR      30  19  64 W17G23    30.38R WCI  18
COTTONWOOD PAS PTSUNNY   41  36  81 W3        30.31S
GUNNISON       FAIR      32  31  96 SE3       30.26R
GRANBY         FOG       34  34  99 CALM      30.25S VSB 1/2
KREMMLING      PTSUNNY   37  36  93 CALM      30.24R
LEADVILLE      CLOUDY    34  32  92 SE3       30.30R
MONARCH PASS   FAIR      32  28  86 MISG      30.48R
SALIDA         CLOUDY    44  39  82 SE3       30.34R
SUNLIGHT       FAIR      36  27  69 SE7       30.33R
WILKERSON PASS PTSUNNY   32  30  93 SW10G16   30.38R FOG     WCI  24
$$

COZ069>075-201400-
...SAN LUIS VALLEY/SANGRE DE CRISTO MOUNTAINS...

CITY           SKY/WX    TMP DP  RH WIND       PRES   REMARKS
ALAMOSA        FAIR      38  32  79 CALM      30.24R
DEL NORTE      FAIR      39  27  61 W13       30.26R
LA VETA PASS   FAIR      41  34  75 S5        30.44R
SAGUACHE       NOT AVBL
$$

COZ035-036-038>040-201400-
...NORTHERN COLORADO FRONT RANGE...

CITY           SKY/WX    TMP DP  RH WIND       PRES   REMARKS
DENVER INTL AP CLOUDY    41  39  93 E10       30.27R FOG
AURORA         CLOUDY    41  41 100 E9        30.27R FOG
FRONT RANGE AP FOG       41  41 100 E9        30.28R VSB 1/2
ERIE MUNI ARPT LGT RAIN  43  42  95 E5        30.33R
BOULDER MUN AP CLOUDY    41  41 100 NE3       30.27R FOG
CENTENNIAL     CLOUDY    43  40  89 E3        30.26R
BROOMFIELD     DRZL/FOG  41  41 100 NE6       30.28R VSB 1/2
FORT COLLINS   LGT RAIN  42  41  96 SE9       30.29R FOG
LONGMONT       LGT RAIN  45  43  93 E5        30.29R
$$

COZ041-046-047-076>085-087-088-201400-
...PIKES PEAK/PALMER DIVIDE AND SOUTHERN FOOTHILLS...

CITY           SKY/WX    TMP DP  RH WIND       PRES   REMARKS
COLO. SPRINGS  LGT RAIN  42  41  96 SE10      30.28R FOG
A. F. ACADEMY  CLOUDY    42  41  99 S7        30.27R
SCHRIEVER AFB  NOT AVBL
CHEYENNE MTN   LGT RAIN  39  39 100 SE7       30.22R VSB 1/8
ELLICOTT         N/A    N/A N/A N/A E7        30.26R
FALCON         CLOUDY    39  39  99 SE5       30.29R FOG
FORT CARSON    LGT RAIN  43  43 100 SE9       30.26R FOG
LIMON          CLOUDY    40  40 100 N5        30.27R
MONUMENT HILL  FOG       36  36 100 E3        30.29R VSB 1/2
CANON CITY     CLOUDY    46  45  93 E13G21    30.26R
WALSENBURG     NOT AVBL
TRINIDAD       CLOUDY    43  42  97 E8        30.27R FOG
$$

COZ042>045-048>051-090-091-201400-
...NORTHEAST COLORADO...

CITY           SKY/WX    TMP DP  RH WIND       PRES   REMARKS
GREELEY ARPT   CLOUDY    43  39  86 SE6       30.29
AKRON          CLOUDY    42  39  89 N5        30.27R
BURLINGTON     FAIR      44  41  89 N14       30.23F
WRAY           CLOUDY    45  41  87 NW8       30.25S
YUMA           CLOUDY    43  39  87 NW7       30.26S
STERLING       CLOUDY    43  41  93 CALM      30.27R
HOLYOKE        CLOUDY    46  41  81 NW7       30.25S
FORT MORGAN    CLOUDY    42  38  84 CALM      30.29R
$$

COZ086-089-092>099-201400-
...SOUTHEAST COLORADO...

CITY           SKY/WX    TMP DP  RH WIND       PRES   REMARKS
PUEBLO         CLOUDY    47  42  83 SE8       30.26S
LA JUNTA       CLOUDY    47  41  80 VRB5      30.27R
LAMAR          CLOUDY    48  39  71 MISG      30.24R
SPRINGFIELD      N/A     43  42  97 N18       30.22F
$$




USA.gov is the U.S. government's official web portal to all federal, state and local government web resources and services.